Time,TemperatureF,DewpointF,PressureIn,WindDirection,WindDirectionDegrees,WindSpeedMPH,WindSpeedGustMPH,Humidity,HourlyPrecipIn,Conditions,Clouds,dailyrainin,SolarRadiationWatts/m^2,SoftwareType,DateUTC
2013-01-30 00:01:00,30.0,30.0,-100.00,NNE,22,2.0,9.0,99,0.00,,,0.00,0.800000,,2013-01-30 09:01:00,
2013-01-30 00:11:00,30.0,30.0,-100.00,NNE,22,2.0,9.0,99,0.00,,,0.00,0.800000,,2013-01-30 09:11:00,
2013-01-30 00:21:00,30.0,30.0,-100.00,NNE,22,2.0,9.0,99,0.00,,,0.00,0.800000,,2013-01-30 09:21:00,
2013-01-30 01:52:00,31.0,31.0,-100.00,North,351,2.0,4.0,99,-99.99,,,0.00,0.800000,,2013-01-30 10:52:00,
2013-01-30 02:02:00,31.0,31.0,-100.00,North,351,2.0,4.0,99,-99.99,,,0.00,0.800000,,2013-01-30 11:02:00,
2013-01-30 02:11:00,31.0,31.0,-100.00,North,351,2.0,4.0,99,-99.99,,,0.00,0.800000,,2013-01-30 11:11:00,
2013-01-30 02:21:00,31.0,31.0,-100.00,North,351,2.0,4.0,99,-99.99,,,0.00,0.800000,,2013-01-30 11:21:00,
2013-01-30 02:52:00,32.0,32.0,-100.00,WNW,289,2.0,4.0,100,0.00,,,0.00,0.800000,,2013-01-30 11:52:00,
2013-01-30 03:02:00,32.0,32.0,-100.00,WNW,289,2.0,4.0,100,0.00,,,0.00,0.800000,,2013-01-30 12:02:00,
2013-01-30 03:12:00,32.0,32.0,-100.00,WNW,289,2.0,4.0,100,0.00,,,0.00,0.800000,,2013-01-30 12:12:00,
2013-01-30 03:21:00,32.0,32.0,-100.00,WNW,289,2.0,4.0,100,0.00,,,0.00,0.800000,,2013-01-30 12:21:00,
2013-01-30 04:02:00,32.0,32.0,-100.00,East,91,0.0,5.0,100,0.00,,,0.00,0.800000,,2013-01-30 13:02:00,
2013-01-30 04:12:00,32.0,32.0,-100.00,East,91,0.0,5.0,100,0.00,,,0.00,0.800000,,2013-01-30 13:12:00,
2013-01-30 04:22:00,32.0,32.0,-100.00,East,91,0.0,5.0,100,0.00,,,0.00,0.800000,,2013-01-30 13:22:00,
2013-01-30 04:53:00,32.0,32.0,-100.00,NNE,18,2.0,3.0,100,0.00,,,0.00,0.800000,,2013-01-30 13:53:00,
2013-01-30 05:02:00,32.0,32.0,-100.00,NNE,18,2.0,3.0,100,0.00,,,0.00,0.800000,,2013-01-30 14:02:00,
2013-01-30 05:11:00,32.0,32.0,-100.00,NNE,18,2.0,3.0,100,0.00,,,0.00,0.800000,,2013-01-30 14:11:00,
2013-01-30 05:22:00,32.0,32.0,-100.00,NNE,18,2.0,3.0,100,0.00,,,0.00,0.800000,,2013-01-30 14:22:00,
2013-01-30 05:53:00,31.0,31.0,-100.00,NNE,17,1.0,4.0,100,0.00,,,0.00,0.800000,,2013-01-30 14:53:00,
2013-01-30 06:03:00,31.0,31.0,-100.00,NNE,17,1.0,4.0,100,0.00,,,0.00,0.800000,,2013-01-30 15:03:00,
2013-01-30 06:12:00,31.0,31.0,-100.00,NNE,17,1.0,4.0,100,0.00,,,0.00,0.800000,,2013-01-30 15:12:00,
2013-01-30 06:22:00,31.0,31.0,-100.00,NNE,17,1.0,4.0,100,0.00,,,0.00,0.800000,,2013-01-30 15:22:00,
2013-01-30 06:53:00,32.0,32.0,-100.00,NNE,17,2.0,4.0,100,0.00,,,0.00,0.800000,,2013-01-30 15:53:00,
2013-01-30 07:03:00,32.0,32.0,-100.00,NNE,17,2.0,4.0,100,0.00,,,0.00,0.800000,,2013-01-30 16:03:00,
2013-01-30 07:12:00,32.0,32.0,-100.00,NNE,17,2.0,4.0,100,0.00,,,0.00,0.800000,,2013-01-30 16:12:00,
2013-01-30 07:22:00,32.0,32.0,-100.00,NNE,17,2.0,4.0,100,0.00,,,0.00,0.800000,,2013-01-30 16:22:00,
2013-01-30 07:52:00,32.0,32.0,-100.00,NNE,17,4.0,5.0,100,0.00,,,0.00,0.800000,,2013-01-30 16:52:00,
2013-01-30 08:02:00,32.0,32.0,-100.00,NNE,17,4.0,5.0,100,0.00,,,0.00,0.800000,,2013-01-30 17:02:00,
2013-01-30 08:12:00,32.0,32.0,-100.00,NNE,17,4.0,5.0,100,0.00,,,0.00,0.800000,,2013-01-30 17:12:00,
2013-01-30 08:22:00,32.0,32.0,-100.00,NNE,17,4.0,5.0,100,0.00,,,0.00,0.800000,,2013-01-30 17:22:00,
2013-01-30 08:53:00,32.0,32.0,-100.00,NNE,17,0.0,4.0,100,0.00,,,0.00,0.800000,,2013-01-30 17:53:00,
2013-01-30 09:02:00,32.0,32.0,-100.00,NNE,17,0.0,4.0,100,0.00,,,0.00,0.800000,,2013-01-30 18:02:00,
2013-01-30 09:12:00,32.0,32.0,-100.00,NNE,17,0.0,4.0,100,0.00,,,0.00,0.800000,,2013-01-30 18:12:00,
2013-01-30 09:22:00,32.0,32.0,-100.00,NNE,17,0.0,4.0,100,0.00,,,0.00,0.800000,,2013-01-30 18:22:00,
2013-01-30 09:53:00,32.0,32.0,-100.00,NNE,17,0.0,4.0,100,0.00,,,0.00,0.900000,,2013-01-30 18:53:00,
2013-01-30 10:02:00,32.0,32.0,-100.00,NNE,17,0.0,4.0,100,0.00,,,0.00,0.900000,,2013-01-30 19:02:00,
2013-01-30 10:12:00,32.0,32.0,-100.00,NNE,17,0.0,4.0,100,0.00,,,0.00,0.900000,,2013-01-30 19:12:00,
2013-01-30 10:21:00,32.0,32.0,-100.00,NNE,17,0.0,4.0,100,0.00,,,0.00,0.900000,,2013-01-30 19:21:00,
2013-01-30 10:53:00,33.0,33.0,-100.00,SW,236,4.0,4.0,100,0.02,,,0.02,9.100000,,2013-01-30 19:53:00,
2013-01-30 11:03:00,33.0,33.0,-100.00,SW,236,4.0,4.0,100,0.02,,,0.02,9.100000,,2013-01-30 20:03:00,
2013-01-30 11:11:00,33.0,33.0,-100.00,SW,236,4.0,4.0,100,0.02,,,0.02,9.100000,,2013-01-30 20:11:00,
2013-01-30 11:21:00,33.0,33.0,-100.00,SW,236,4.0,4.0,100,0.02,,,0.02,9.100000,,2013-01-30 20:21:00,
2013-01-30 11:53:00,35.0,35.0,-100.00,WSW,241,9.0,10.0,100,0.12,,,0.14,14.800000,,2013-01-30 20:53:00,
2013-01-30 12:03:00,35.0,35.0,-100.00,WSW,241,9.0,10.0,100,0.12,,,0.14,14.800000,,2013-01-30 21:03:00,
2013-01-30 12:11:00,35.0,35.0,-100.00,WSW,241,9.0,10.0,100,0.12,,,0.14,14.800000,,2013-01-30 21:11:00,
2013-01-30 12:22:00,35.0,35.0,-100.00,WSW,241,9.0,10.0,100,0.12,,,0.14,14.800000,,2013-01-30 21:22:00,
2013-01-30 12:52:00,35.0,34.0,-100.00,WSW,245,8.0,13.0,99,0.22,,,0.36,15.300000,,2013-01-30 21:52:00,
2013-01-30 13:02:00,35.0,34.0,-100.00,WSW,245,8.0,13.0,99,0.22,,,0.36,15.300000,,2013-01-30 22:02:00,
2013-01-30 13:11:00,35.0,34.0,-100.00,WSW,245,8.0,13.0,99,0.22,,,0.36,15.300000,,2013-01-30 22:11:00,
2013-01-30 13:22:00,35.0,34.0,-100.00,WSW,245,8.0,13.0,99,0.22,,,0.36,15.300000,,2013-01-30 22:22:00,
2013-01-30 13:53:00,36.0,34.0,-100.00,South,191,12.0,21.0,90,0.38,,,0.74,15.300000,,2013-01-30 22:53:00,
2013-01-30 14:02:00,36.0,34.0,-100.00,South,191,12.0,21.0,90,0.38,,,0.74,15.300000,,2013-01-30 23:02:00,
2013-01-30 14:11:00,36.0,34.0,-100.00,South,191,12.0,21.0,90,0.38,,,0.74,15.300000,,2013-01-30 23:11:00,
2013-01-30 14:22:00,36.0,34.0,-100.00,South,191,12.0,21.0,90,0.38,,,0.74,15.300000,,2013-01-30 23:22:00,
2013-01-30 14:52:00,35.0,34.0,-100.00,SW,235,12.0,19.0,97,0.22,,,0.96,11.800000,,2013-01-30 23:52:00,
2013-01-30 15:02:00,35.0,34.0,-100.00,SW,235,12.0,19.0,97,0.22,,,0.96,11.800000,,2013-01-31 00:02:00,
2013-01-30 15:11:00,35.0,34.0,-100.00,SW,235,12.0,19.0,97,0.22,,,0.96,11.800000,,2013-01-31 00:11:00,
2013-01-30 15:21:00,35.0,34.0,-100.00,SW,235,12.0,19.0,97,0.22,,,0.96,11.800000,,2013-01-31 00:21:00,
2013-01-30 15:53:00,35.0,34.0,-100.00,SSW,205,9.0,18.0,96,0.16,,,1.12,7.400000,,2013-01-31 00:53:00,
2013-01-30 16:02:00,35.0,34.0,-100.00,SSW,205,9.0,18.0,96,0.16,,,1.12,7.400000,,2013-01-31 01:02:00,
2013-01-30 16:11:00,35.0,34.0,-100.00,SSW,205,9.0,18.0,96,0.16,,,1.12,7.400000,,2013-01-31 01:11:00,
2013-01-30 16:21:00,35.0,34.0,-100.00,SSW,205,9.0,18.0,96,0.16,,,1.12,7.400000,,2013-01-31 01:21:00,
2013-01-30 16:52:00,34.0,33.0,-100.00,South,184,9.0,17.0,97,0.15,,,1.27,4.800000,,2013-01-31 01:52:00,
2013-01-30 17:01:00,34.0,33.0,-100.00,South,184,9.0,17.0,97,0.15,,,1.27,4.800000,,2013-01-31 02:01:00,
2013-01-30 17:11:00,34.0,33.0,-100.00,South,184,9.0,17.0,97,0.15,,,1.27,4.800000,,2013-01-31 02:11:00,
2013-01-30 17:21:00,34.0,33.0,-100.00,South,184,9.0,17.0,97,0.15,,,1.27,4.800000,,2013-01-31 02:21:00,
2013-01-30 18:02:00,34.0,33.0,-100.00,West,280,7.0,16.0,98,0.13,,,1.40,1.400000,,2013-01-31 03:02:00,
2013-01-30 18:11:00,34.0,33.0,-100.00,West,280,7.0,16.0,98,0.13,,,1.40,1.400000,,2013-01-31 03:11:00,
2013-01-30 18:21:00,34.0,33.0,-100.00,West,280,7.0,16.0,98,0.13,,,1.40,1.400000,,2013-01-31 03:21:00,
2013-01-30 18:52:00,33.0,33.0,-100.00,West,273,6.0,15.0,98,0.12,,,1.52,0.800000,,2013-01-31 03:52:00,
2013-01-30 19:02:00,33.0,33.0,-100.00,West,273,6.0,15.0,98,0.12,,,1.52,0.800000,,2013-01-31 04:02:00,
2013-01-30 19:11:00,33.0,33.0,-100.00,West,273,6.0,15.0,98,0.12,,,1.52,0.800000,,2013-01-31 04:11:00,
2013-01-30 19:22:00,33.0,33.0,-100.00,West,273,6.0,15.0,98,0.12,,,1.52,0.800000,,2013-01-31 04:22:00,
2013-01-30 19:52:00,34.0,33.0,-100.00,West,266,6.0,10.0,96,0.08,,,1.60,0.800000,,2013-01-31 04:52:00,
2013-01-30 20:03:00,34.0,33.0,-100.00,West,266,6.0,10.0,96,0.08,,,1.60,0.800000,,2013-01-31 05:03:00,
2013-01-30 20:11:00,34.0,33.0,-100.00,West,266,6.0,10.0,96,0.08,,,1.60,0.800000,,2013-01-31 05:11:00,
2013-01-30 20:21:00,34.0,33.0,-100.00,West,266,6.0,10.0,96,0.08,,,1.60,0.800000,,2013-01-31 05:21:00,